Location: Beadle
(51.4667°N, 109.0000°W)
Time: 06:03:37
(UTC+00:00)

Envisat - Pass Details

Date: 23 January 2022
Orbit: 764 x 765 km, 98.2° (Epoch: 25 May)

Event Time Altitude Azimuth Distance (km) Brightness Sun altitude
Rises 12:47:21 0° 12° (NNE) 3,245 6.3 -21.3°
Reaches altitude 10° 12:49:41 10° 9° (N) 2,314 5.5 -20.9°
Maximum altitude 12:54:42 61° 290° (WNW) 871 2.9 -20.1°
Drops below altitude 10° 12:59:41 10° 211° (SSW) 2,299 5.2 -19.4°
Sets 13:02:00 0° 208° (SSW) 3,221 6.0 -19.0°
